FloripaSat 1
1 44885U 19093G   25180.77983399  .00003181  00000-0  26965-3 0  9996
2 44885  97.8152 268.4225 0012065 135.7666 224.4523 14.98636485299770
RS-44
1 44909U 19096E   25180.56800708  .00000005  00000-0 -19302-4 0  9996
2 44909  82.5200 213.9985 0216322 248.7410 109.0467 12.79741521257240
UPMSat 2
1 46276U 20061E   25180.19018164  .00052938  00000-0  41997-3 0  9990
2 46276  97.2425 255.2659 0002289 154.5153 205.6223 15.71132957268541
SALSAT
1 46495U 20068K   25180.85389879  .00004423  00000-0  19121-3 0  9997
2 46495  97.8615 159.8228 0013150  92.4247 267.8494 15.22964314261612
CubeSX-Sirius-HSE
1 47951U 21022V   25157.62701764  .07883385  25648-5  89537-3 0  9993
2 47951  97.4004  72.1904 0010275 223.9924 136.0557 16.36879307233400
CubeSX-HSE
1 47952U 21022W   25157.69972699  .06655353  25454-5  93288-3 0  9992
2 47952  97.3980  72.5414 0010307 219.3637 140.6911 16.34906352233436
GRBAlpha
1 47959U 21022AD  25160.45426279  .07940347  25506-5  90589-3 0  9995
2 47959  97.3899  75.6235 0011032 227.2558 132.7812 16.36806138232695
TUBIN
1 48900U 21059X   25180.78384099  .00030546  00000-0  35008-3 0  9999
2 48900  97.6762 351.6772 0004247 152.7488 207.3992 15.62052847223192
LEDSAT
1 49069U 21073D   25180.16630538  .00049392  00000-0  54066-3 0  9990
2 49069  97.3879 262.5572 0007093   7.7472 352.3895 15.63120431214499
CUTE
1 49263U 21088D   25180.47109548  .00009367  00000-0  18323-3 0  9992
2 49263  97.4504 257.3111 0008906 161.7054 198.4518 15.47616457207508
TeikyoSat 4
1 49396U 21102B   25180.86005865  .00001486  00000-0  10112-3 0  9998
2 49396  97.4088 218.5559 0013977  67.6300 292.6408 15.07710000199600
Z-Sat
1 49399U 21102E   25180.83641626  .00002539  00000-0  14068-3 0  9993
2 49399  97.3783 221.7548 0018938  38.7372 321.5214 15.14551555200042
KOSEN 1
1 49402U 21102H   25180.61233483  .00004000  00000-0  18553-3 0  9990
2 49402  97.3690 225.1051 0015929  15.7215 344.4512 15.20511873200332
HO-113
1 50466U 21131B   25180.83043293  .00000316  00000-0  11244-3 0  9992
2 50466  98.5108 270.0845 0005376  81.0473 279.1323 14.40833590184360
Foresail-1
1 52766U 22057AL  25176.64799660  .13857605  27391-5  25307-3 0  9992
2 52766  97.5832 331.2310 0012137 233.7199 258.4922 16.46795272172486
SNUGLITE 2
1 52899U 22065F   25180.38941990  .00000626  00000-0  13060-3 0  9994
2 52899  98.1713 322.1725 0008625  57.7623 302.4414 14.63250160159389
UmKA 1 (RS40S)
1 57172U 23091G   25180.87762426  .00003130  00000-0  16842-3 0  9996
2 57172  97.5564 236.1552 0012713 262.8099  97.1688 15.15533458110555
CubeBel-2 (EU11S)
1 57175U 23091K   25180.85351732  .00005568  00000-0  26427-3 0  9998
2 57175  97.5563 237.4025 0010423 270.2351  89.7689 15.19626677110633
VERONIKA
1 58261U 23174F   25180.74738179  .00138012  00000-0  87291-3 0  9996
2 58261  97.4095 268.2209 0003800 264.1760  95.9072 15.76173885 91850
ENSO
1 58470U 23185J   25180.81942750  .00044118  00000-0  59291-3 0  9992
2 58470  97.3720 256.6159 0005243  17.0178 343.1252 15.57768795 88181
EIRSAT-1
1 58472U 23185L   25180.85554723  .00100601  00000-0  78096-3 0  9991
2 58472  97.3658 258.9368 0001854 359.6701   0.4561 15.71491906 88348
SONATE-2
1 59112U 24043Q   25180.36367369  .00010229  00000-0  29077-3 0  9992
2 59112  97.5164 311.9478 0011555  49.9567 310.2689 15.36296273 73375
MO-122
1 60209U 24125G   25180.56891404  .00011047  00000-0  30840-3 0  9995
2 60209  97.2773  31.9686 0019964  68.6597 291.6776 15.36691235 55028
GRBBeta
1 60237U 24128C   25180.23267975  .00002502  00000-0  19628-3 0  9990
2 60237  61.9921  11.0270 0053379  61.9639 298.6836 15.02776264 53156
Curium One
1 60242U 24128H   25179.90403027  .00004559  00000-0  32160-3 0  9998
2 60242  61.9824  10.1782 0053309  58.0607 302.5653 15.05352690 53144
ROBUSTA-3A
1 60243U 24128J   25179.97917501  .00004411  00000-0  31606-3 0  9994
2 60243  61.9894  10.8084 0052171  55.8530 304.7494 15.04880932 53141
CatSat
1 60246U 24125J   25180.56662239  .00006005  00000-0  19934-3 0  9997
2 60246  97.2572  30.9515 0042721  25.3402 334.9922 15.30702862 53045
HYPERVIEW-1G (RS66S)
1 61772U 24199AP  25180.87354981  .00013911  00000-0  39553-3 0  9992
2 61772  97.3504  49.6956 0015235 117.5606 242.7188 15.36150306 80071
AO-123
1 61781U 24199AY  25180.87471848  .00004170  00000-0  15205-3 0  9999
2 61781  97.3520  48.3632 0017310 122.8009 237.4901 15.28578170 79984
ZIMSAT 2
1 61783U 24199BA  25180.85402471  .00026216  00000-0  61619-3 0  9990
2 61783  97.3478  50.4498 0015085 115.0384 245.2431 15.41860846 83270
HADES-R (SO-124)
1 62690U 25009CK  25180.16832268  .00023668  00000-0  80937-3 0  9996
2 62690  97.4087 260.9125 0002623  58.1573 301.9923 15.30261160 25141
HYDRA-T
1 62692U 25009CM  25180.15035386  .00023767  00000-0  80574-3 0  9990
2 62692  97.4085 260.9360 0002294  57.9251 302.2212 15.30542543 25148
JINJUSat 1B
1 63210U 25052A   25180.46568383  .00006546  00000-0  29832-3 0  9993
2 63210  97.4391  74.3396 0002458 238.3911 121.7084 15.20992235 16272
NUSHSAT 1
1 63211U 25052B   25180.58894013  .00007681  00000-0  34674-3 0  9990
2 63211  97.4380  74.4672 0002345 247.5944 112.5044 15.21260403 16294
TEVEL2-4
1 63213U 25052D   25180.60654504  .00006604  00000-0  30133-3 0  9994
2 63213  97.4296  74.3304 0001398 282.9301  77.1778 15.20948050 16290
TEVEL2-5
1 63214U 25052E   25180.47581067  .00006560  00000-0  29954-3 0  9993
2 63214  97.4299  74.1998 0001399 284.6141  75.4939 15.20924768 16271
TEVEL2-6
1 63215U 25052F   25180.61006035  .00006443  00000-0  29460-3 0  9999
2 63215  97.4299  74.3275 0001464 285.2613  74.8461 15.20886387 16295
TEVEL2-1
1 63217U 25052H   25180.68981768  .00006335  00000-0  29156-3 0  9995
2 63217  97.4276  74.3398 0001851 313.5927  46.5154 15.20666650 16307
TEVEL2-2
1 63218U 25052J   25180.62430640  .00006362  00000-0  29280-3 0  9996
2 63218  97.4275  74.2756 0001893 314.0638  46.0441 15.20666848 16296
TEVEL2-3
1 63219U 25052K   25180.62450141  .00006420  00000-0  29546-3 0  9995
2 63219  97.4274  74.2749 0001867 314.7647  45.3436 15.20660851 16290
TEVEL2-8
1 63237U 25052AD  25180.50830625  .00006667  00000-0  31754-3 0  9998
2 63237  97.4340  74.0604 0006546 315.7932  44.2779 15.19444228 16260
TEVEL2-9
1 63238U 25052AE  25180.18216036  .00006802  00000-0  32455-3 0  9997
2 63238  97.4342  73.7346 0006677 316.8885  43.1826 15.19375798 16217
TEVEL2-7
1 63239U 25052AF  25180.64557178  .00006648  00000-0  31752-3 0  9991
2 63239  97.4340  74.1839 0006620 315.3028  44.7672 15.19348459 16286
HYDRA-W
1 63490U 25052BL  25180.44449973  .00016063  00000-0  66316-3 0  9997
2 63490  97.4290  74.3804 0009643 309.0947  50.9432 15.24066095 16283
HADES-ICM (SO-125)
1 63492U 25052BN  25180.66233475  .00014893  00000-0  62371-3 0  9997
2 63492  97.4292  74.5556 0010027 312.2685  47.7700 15.23597569 16316
